Time,TemperatureF,DewpointF,PressureIn,WindDirection,WindDirectionDegrees,WindSpeedMPH,WindSpeedGustMPH,Humidity,HourlyPrecipIn,Conditions,Clouds,dailyrainin,SoftwareType,DateUTC
2013-01-28 00:00:00,27.6,26.4,29.85,SE,136,1.0,1.0,95,0.00,,,0.02,Wunderground v.1.15,2013-01-28 06:00:00,
2013-01-28 00:10:00,27.2,26.0,29.85,SE,137,0.0,0.0,95,0.00,,,0.00,Wunderground v.1.15,2013-01-28 06:10:00,
2013-01-28 00:20:00,27.0,25.8,29.85,SE,137,0.0,0.0,95,0.00,,,0.00,Wunderground v.1.15,2013-01-28 06:20:00,
2013-01-28 00:30:00,27.2,26.2,29.85,SE,136,0.0,0.0,96,0.00,,,0.00,Wunderground v.1.15,2013-01-28 06:30:00,
2013-01-28 00:40:00,26.7,25.5,29.85,SE,137,0.0,0.0,95,0.00,,,0.00,Wunderground v.1.15,2013-01-28 06:40:00,
2013-01-28 00:50:00,26.4,25.2,29.84,SE,136,0.0,0.0,95,0.00,,,0.00,Wunderground v.1.15,2013-01-28 06:50:00,
2013-01-28 01:00:00,27.0,26.0,29.84,NNE,25,1.0,1.0,96,0.00,,,0.00,Wunderground v.1.15,2013-01-28 07:00:00,
2013-01-28 01:10:00,27.7,26.7,29.84,East,101,1.0,1.0,96,0.00,,,0.00,Wunderground v.1.15,2013-01-28 07:10:00,
2013-01-28 01:20:00,28.1,27.1,29.84,SE,136,0.0,1.0,96,0.00,,,0.00,Wunderground v.1.15,2013-01-28 07:20:00,
2013-01-28 01:30:00,28.0,27.0,29.84,SE,136,0.0,0.0,96,0.00,,,0.00,Wunderground v.1.15,2013-01-28 07:30:00,
2013-01-28 01:40:00,27.9,26.9,29.84,ESE,104,1.0,2.0,96,0.00,,,0.00,Wunderground v.1.15,2013-01-28 07:40:00,
2013-01-28 01:50:00,28.1,27.1,29.83,SE,146,0.0,0.0,96,0.00,,,0.00,Wunderground v.1.15,2013-01-28 07:50:00,
2013-01-28 02:00:00,27.9,26.9,29.83,SE,131,0.0,0.0,96,0.00,,,0.00,Wunderground v.1.15,2013-01-28 08:00:00,
2013-01-28 02:10:00,27.8,26.8,29.83,ESE,113,0.0,0.0,96,0.00,,,0.00,Wunderground v.1.15,2013-01-28 08:10:00,
2013-01-28 02:20:00,27.6,26.6,29.83,ESE,113,0.0,0.0,96,0.00,,,0.00,Wunderground v.1.15,2013-01-28 08:20:00,
2013-01-28 02:30:00,27.4,26.4,29.83,North,353,0.0,0.0,96,0.00,,,0.00,Wunderground v.1.15,2013-01-28 08:30:00,
2013-01-28 02:40:00,27.3,26.3,29.83,North,353,0.0,0.0,96,0.00,,,0.00,Wunderground v.1.15,2013-01-28 08:40:00,
2013-01-28 02:50:00,27.2,26.2,29.83,NNW,347,0.0,0.0,96,0.00,,,0.00,Wunderground v.1.15,2013-01-28 08:50:00,
2013-01-28 03:00:00,26.9,25.9,29.83,NNW,340,0.0,0.0,96,0.00,,,0.00,Wunderground v.1.15,2013-01-28 09:00:00,
2013-01-28 03:10:00,26.8,25.8,29.83,NNW,340,0.0,0.0,96,0.00,,,0.00,Wunderground v.1.15,2013-01-28 09:10:00,
2013-01-28 03:20:00,26.7,25.7,29.82,NW,323,0.0,0.0,96,0.00,,,0.00,Wunderground v.1.15,2013-01-28 09:20:00,
2013-01-28 03:30:00,26.6,25.6,29.83,NW,321,0.0,0.0,96,0.00,,,0.00,Wunderground v.1.15,2013-01-28 09:30:00,
2013-01-28 03:40:00,26.6,25.6,29.83,SW,235,0.0,0.0,96,0.00,,,0.00,Wunderground v.1.15,2013-01-28 09:40:00,
2013-01-28 03:50:00,26.5,25.5,29.83,West,262,0.0,0.0,96,0.00,,,0.00,Wunderground v.1.15,2013-01-28 09:50:00,
2013-01-28 04:00:00,26.8,25.8,29.83,WNW,298,2.0,3.0,96,0.00,,,0.00,Wunderground v.1.15,2013-01-28 10:00:00,
2013-01-28 04:10:00,27.1,26.1,29.83,WNW,284,2.0,2.0,96,0.00,,,0.00,Wunderground v.1.15,2013-01-28 10:10:00,
2013-01-28 04:20:00,27.0,26.0,29.83,WNW,283,1.0,1.0,96,0.00,,,0.00,Wunderground v.1.15,2013-01-28 10:20:00,
2013-01-28 04:30:00,27.3,26.3,29.84,WNW,296,2.0,2.0,96,0.00,,,0.00,Wunderground v.1.15,2013-01-28 10:30:00,
2013-01-28 04:40:00,27.5,26.5,29.84,West,273,1.0,1.0,96,0.00,,,0.00,Wunderground v.1.15,2013-01-28 10:40:00,
2013-01-28 04:50:00,27.7,26.7,29.84,WNW,293,2.0,2.0,96,0.00,,,0.00,Wunderground v.1.15,2013-01-28 10:50:00,
2013-01-28 05:00:00,27.9,26.9,29.83,WNW,288,1.0,1.0,96,0.00,,,0.00,Wunderground v.1.15,2013-01-28 11:00:00,
2013-01-28 05:10:00,28.1,27.1,29.83,WNW,289,1.0,1.0,96,0.00,,,0.00,Wunderground v.1.15,2013-01-28 11:10:00,
2013-01-28 05:20:00,28.1,27.1,29.83,WNW,290,0.0,0.0,96,0.00,,,0.00,Wunderground v.1.15,2013-01-28 11:20:00,
2013-01-28 05:30:00,28.3,27.3,29.83,WNW,289,0.0,0.0,96,0.00,,,0.00,Wunderground v.1.15,2013-01-28 11:30:00,
2013-01-28 05:40:00,28.4,27.4,29.83,WNW,290,1.0,1.0,96,0.00,,,0.00,Wunderground v.1.15,2013-01-28 11:40:00,
2013-01-28 05:50:00,28.5,27.5,29.83,NNW,333,0.0,0.0,96,0.00,,,0.00,Wunderground v.1.15,2013-01-28 11:50:00,
2013-01-28 06:00:00,28.7,27.7,29.83,NW,313,0.0,1.0,96,0.00,,,0.00,Wunderground v.1.15,2013-01-28 12:00:00,
2013-01-28 06:10:00,28.9,27.9,29.83,NW,305,0.0,0.0,96,0.00,,,0.00,Wunderground v.1.15,2013-01-28 12:10:00,
2013-01-28 06:20:00,28.9,27.9,29.83,North,4,0.0,0.0,96,0.00,,,0.00,Wunderground v.1.15,2013-01-28 12:20:00,
2013-01-28 06:30:00,28.9,27.9,29.82,NNE,14,0.0,0.0,96,0.00,,,0.00,Wunderground v.1.15,2013-01-28 12:30:00,
2013-01-28 06:40:00,28.8,27.8,29.83,NNE,13,0.0,0.0,96,0.00,,,0.00,Wunderground v.1.15,2013-01-28 12:40:00,
2013-01-28 06:50:00,28.9,27.9,29.83,North,11,0.0,0.0,96,0.00,,,0.00,Wunderground v.1.15,2013-01-28 12:50:00,
2013-01-28 07:00:00,28.8,27.8,29.83,North,11,0.0,0.0,96,0.00,,,0.00,Wunderground v.1.15,2013-01-28 13:00:00,
2013-01-28 07:10:00,28.9,27.9,29.84,North,11,0.0,0.0,96,0.00,,,0.00,Wunderground v.1.15,2013-01-28 13:10:00,
2013-01-28 07:20:00,29.0,28.0,29.84,South,187,0.0,0.0,96,0.00,,,0.00,Wunderground v.1.15,2013-01-28 13:20:00,
2013-01-28 07:30:00,29.1,28.4,29.84,SW,225,0.0,0.0,97,0.00,,,0.00,Wunderground v.1.15,2013-01-28 13:30:00,
2013-01-28 07:40:00,29.2,28.2,29.83,SW,231,0.0,0.0,96,0.00,,,0.00,Wunderground v.1.15,2013-01-28 13:40:00,
2013-01-28 07:50:00,29.2,28.2,29.83,SSW,200,0.0,0.0,96,0.00,,,0.00,Wunderground v.1.15,2013-01-28 13:50:00,
2013-01-28 08:00:00,29.2,28.2,29.83,SSW,200,0.0,0.0,96,0.00,,,0.00,Wunderground v.1.15,2013-01-28 14:00:00,
2013-01-28 08:10:00,29.3,28.3,29.83,SSW,200,0.0,0.0,96,0.00,,,0.00,Wunderground v.1.15,2013-01-28 14:10:00,
2013-01-28 08:20:00,29.4,28.7,29.83,WNW,285,0.0,0.0,97,0.00,,,0.00,Wunderground v.1.15,2013-01-28 14:20:00,
2013-01-28 08:30:00,29.6,28.9,29.83,WNW,285,1.0,1.0,97,0.00,,,0.00,Wunderground v.1.15,2013-01-28 14:30:00,
2013-01-28 08:40:00,29.8,29.1,29.82,NNW,330,0.0,0.0,97,0.00,,,0.00,Wunderground v.1.15,2013-01-28 14:40:00,
2013-01-28 08:50:00,30.0,29.3,29.81,North,356,1.0,1.0,97,0.00,,,0.00,Wunderground v.1.15,2013-01-28 14:50:00,
2013-01-28 09:00:00,30.1,29.4,29.81,NNW,327,0.0,0.0,97,0.00,,,0.00,Wunderground v.1.15,2013-01-28 15:00:00,
2013-01-28 09:10:00,30.3,29.6,29.81,NNW,327,0.0,0.0,97,0.00,,,0.00,Wunderground v.1.15,2013-01-28 15:10:00,
2013-01-28 09:20:00,30.5,29.8,29.81,West,273,0.0,0.0,97,0.00,,,0.00,Wunderground v.1.15,2013-01-28 15:20:00,
2013-01-28 09:30:00,30.6,29.9,29.80,NNW,340,0.0,0.0,97,0.00,,,0.00,Wunderground v.1.15,2013-01-28 15:30:00,
2013-01-28 09:40:00,30.7,30.0,29.80,NNW,340,0.0,0.0,97,0.00,,,0.00,Wunderground v.1.15,2013-01-28 15:40:00,
2013-01-28 09:50:00,30.8,30.0,29.81,NNW,333,0.0,0.0,97,0.00,,,0.00,Wunderground v.1.15,2013-01-28 15:50:00,
2013-01-28 10:00:00,30.9,30.1,29.81,SW,235,0.0,0.0,97,0.00,,,0.00,Wunderground v.1.15,2013-01-28 16:00:00,
2013-01-28 10:10:00,31.0,30.2,29.81,SW,235,0.0,0.0,97,0.00,,,0.00,Wunderground v.1.15,2013-01-28 16:10:00,
2013-01-28 10:20:00,31.1,30.3,29.80,SW,235,0.0,0.0,97,0.00,,,0.00,Wunderground v.1.15,2013-01-28 16:20:00,
2013-01-28 10:30:00,31.2,30.4,29.79,NW,320,0.0,2.0,97,0.00,,,0.00,Wunderground v.1.15,2013-01-28 16:30:00,
2013-01-28 10:40:00,31.8,31.0,29.81,ESE,107,1.0,1.0,97,0.00,,,0.00,Wunderground v.1.15,2013-01-28 16:40:00,
2013-01-28 10:50:00,32.3,31.5,29.80,East,83,0.0,0.0,97,0.00,,,0.00,Wunderground v.1.15,2013-01-28 16:50:00,
2013-01-28 11:00:00,32.7,31.9,29.80,ENE,75,1.0,1.0,97,0.00,,,0.00,Wunderground v.1.15,2013-01-28 17:00:00,
2013-01-28 11:10:00,33.1,32.3,29.80,East,101,0.0,0.0,97,0.00,,,0.00,Wunderground v.1.15,2013-01-28 17:10:00,
2013-01-28 11:20:00,33.3,32.5,29.80,East,98,1.0,1.0,97,0.00,,,0.00,Wunderground v.1.15,2013-01-28 17:20:00,
2013-01-28 11:30:00,33.5,32.7,29.78,ESE,105,2.0,2.0,97,0.00,,,0.00,Wunderground v.1.15,2013-01-28 17:30:00,
2013-01-28 11:40:00,33.7,32.9,29.78,ESE,115,1.0,1.0,97,0.00,,,0.00,Wunderground v.1.15,2013-01-28 17:40:00,
2013-01-28 11:50:00,34.1,33.3,29.77,ESE,105,1.0,2.0,97,0.00,,,0.00,Wunderground v.1.15,2013-01-28 17:50:00,
2013-01-28 12:00:00,34.5,33.7,29.77,East,97,1.0,1.0,97,0.00,,,0.00,Wunderground v.1.15,2013-01-28 18:00:00,
2013-01-28 12:10:00,34.9,34.1,29.76,SE,143,1.0,3.0,97,0.00,,,0.00,Wunderground v.1.15,2013-01-28 18:10:00,
2013-01-28 12:20:00,35.0,34.2,29.76,ESE,117,1.0,2.0,97,0.00,,,0.01,Wunderground v.1.15,2013-01-28 18:20:00,
2013-01-28 12:30:00,35.5,34.7,29.74,ESE,108,1.0,1.0,97,0.00,,,0.01,Wunderground v.1.15,2013-01-28 18:30:00,
2013-01-28 12:40:00,35.6,34.8,29.74,ESE,120,2.0,3.0,97,0.00,,,0.01,Wunderground v.1.15,2013-01-28 18:40:00,
2013-01-28 12:50:00,35.8,35.0,29.74,SE,145,3.0,6.0,97,0.00,,,0.01,Wunderground v.1.15,2013-01-28 18:50:00,
2013-01-28 13:00:00,36.4,35.6,29.73,SSE,157,3.0,4.0,97,0.00,,,0.01,Wunderground v.1.15,2013-01-28 19:00:00,
2013-01-28 13:10:00,37.1,36.3,29.72,ESE,113,3.0,3.0,97,0.00,,,0.01,Wunderground v.1.15,2013-01-28 19:10:00,
2013-01-28 13:20:00,37.3,36.5,29.72,ESE,122,2.0,2.0,97,0.00,,,0.01,Wunderground v.1.15,2013-01-28 19:20:00,
2013-01-28 13:30:00,37.8,37.0,29.71,ESE,113,1.0,1.0,97,0.00,,,0.01,Wunderground v.1.15,2013-01-28 19:30:00,
2013-01-28 13:40:00,38.5,37.7,29.70,ESE,104,1.0,1.0,97,0.00,,,0.01,Wunderground v.1.15,2013-01-28 19:40:00,
2013-01-28 13:50:00,39.5,38.7,29.69,ESE,103,1.0,3.0,97,0.00,,,0.01,Wunderground v.1.15,2013-01-28 19:50:00,
2013-01-28 14:00:00,40.1,39.3,29.68,ESE,103,0.0,0.0,97,0.00,,,0.01,Wunderground v.1.15,2013-01-28 20:00:00,
2013-01-28 14:10:00,41.5,40.7,29.67,East,100,0.0,0.0,97,0.00,,,0.01,Wunderground v.1.15,2013-01-28 20:10:00,
2013-01-28 14:20:00,42.2,41.4,29.67,ENE,77,1.0,1.0,97,0.00,,,0.01,Wunderground v.1.15,2013-01-28 20:20:00,
2013-01-28 14:30:00,42.4,41.6,29.66,NNE,12,0.0,0.0,97,0.00,,,0.01,Wunderground v.1.15,2013-01-28 20:30:00,
2013-01-28 14:40:00,43.0,42.2,29.66,North,5,1.0,4.0,97,0.00,,,0.01,Wunderground v.1.15,2013-01-28 20:40:00,
2013-01-28 14:50:00,42.7,41.9,29.66,NNE,25,2.0,3.0,97,0.00,,,0.01,Wunderground v.1.15,2013-01-28 20:50:00,
2013-01-28 15:00:00,43.2,42.4,29.65,North,360,3.0,3.0,97,0.00,,,0.01,Wunderground v.1.15,2013-01-28 21:00:00,
2013-01-28 15:10:00,43.5,42.7,29.64,NNE,29,3.0,3.0,97,0.00,,,0.01,Wunderground v.1.15,2013-01-28 21:10:00,
2013-01-28 15:20:00,43.7,42.6,29.64,NNE,13,4.0,4.0,96,0.00,,,0.01,Wunderground v.1.15,2013-01-28 21:20:00,
2013-01-28 15:30:00,44.4,43.6,29.63,North,4,4.0,4.0,97,0.00,,,0.01,Wunderground v.1.15,2013-01-28 21:30:00,
2013-01-28 15:40:00,44.8,43.7,29.63,North,9,4.0,5.0,96,0.00,,,0.01,Wunderground v.1.15,2013-01-28 21:40:00,
2013-01-28 15:50:00,44.8,43.5,29.63,NW,322,4.0,4.0,95,0.00,,,0.01,Wunderground v.1.15,2013-01-28 21:50:00,
2013-01-28 16:00:00,45.0,43.4,29.62,North,8,4.0,5.0,94,0.00,,,0.01,Wunderground v.1.15,2013-01-28 22:00:00,
2013-01-28 16:10:00,45.4,43.2,29.63,NNE,16,4.0,4.0,92,0.00,,,0.01,Wunderground v.1.15,2013-01-28 22:10:00,
2013-01-28 16:20:00,45.5,43.0,29.62,North,352,4.0,5.0,91,0.00,,,0.01,Wunderground v.1.15,2013-01-28 22:20:00,
2013-01-28 16:30:00,44.7,41.9,29.62,North,359,5.0,5.0,90,0.00,,,0.01,Wunderground v.1.15,2013-01-28 22:30:00,
2013-01-28 16:40:00,44.5,41.7,29.62,NNE,30,4.0,4.0,90,0.00,,,0.01,Wunderground v.1.15,2013-01-28 22:40:00,
2013-01-28 16:50:00,44.0,41.5,29.62,North,357,3.0,4.0,91,0.00,,,0.01,Wunderground v.1.15,2013-01-28 22:50:00,
2013-01-28 17:00:00,43.8,41.3,29.61,North,5,2.0,3.0,91,0.00,,,0.01,Wunderground v.1.15,2013-01-28 23:00:00,
2013-01-28 17:10:00,43.6,41.1,29.61,NE,53,3.0,3.0,91,0.00,,,0.01,Wunderground v.1.15,2013-01-28 23:10:00,
2013-01-28 17:20:00,43.3,40.8,29.61,North,354,2.0,2.0,91,0.00,,,0.01,Wunderground v.1.15,2013-01-28 23:20:00,
2013-01-28 17:30:00,42.8,40.4,29.60,NW,316,1.0,1.0,91,0.00,,,0.01,Wunderground v.1.15,2013-01-28 23:30:00,
2013-01-28 17:40:00,41.8,39.6,29.61,NNE,18,1.0,1.0,92,0.00,,,0.01,Wunderground v.1.15,2013-01-28 23:40:00,
2013-01-28 17:50:00,41.0,38.9,29.60,NNW,336,1.0,1.0,92,0.00,,,0.01,Wunderground v.1.15,2013-01-28 23:50:00,
2013-01-28 18:00:00,39.9,37.8,29.61,NW,309,1.0,1.0,92,0.00,,,0.01,Wunderground v.1.15,2013-01-29 00:00:00,
2013-01-28 18:10:00,39.3,37.7,29.61,NW,320,0.0,1.0,94,0.00,,,0.01,Wunderground v.1.15,2013-01-29 00:10:00,
2013-01-28 18:20:00,38.9,37.3,29.60,NNW,346,0.0,0.0,94,0.00,,,0.01,Wunderground v.1.15,2013-01-29 00:20:00,
2013-01-28 18:30:00,38.1,36.5,29.60,NNW,344,0.0,0.0,94,0.00,,,0.01,Wunderground v.1.15,2013-01-29 00:30:00,
2013-01-28 18:40:00,37.3,35.7,29.60,NE,40,0.0,0.0,94,0.00,,,0.01,Wunderground v.1.15,2013-01-29 00:40:00,
2013-01-28 18:50:00,37.7,36.4,29.60,NW,321,0.0,1.0,95,0.00,,,0.01,Wunderground v.1.15,2013-01-29 00:50:00,
2013-01-28 19:00:00,36.2,34.4,29.61,West,281,0.0,0.0,93,0.00,,,0.01,Wunderground v.1.15,2013-01-29 01:00:00,
2013-01-28 19:10:00,35.6,34.0,29.61,West,276,0.0,0.0,94,0.00,,,0.01,Wunderground v.1.15,2013-01-29 01:10:00,
2013-01-28 19:20:00,35.3,34.0,29.61,SSW,201,0.0,0.0,95,0.00,,,0.01,Wunderground v.1.15,2013-01-29 01:20:00,
2013-01-28 19:30:00,35.1,33.8,29.61,SSW,207,0.0,0.0,95,0.00,,,0.01,Wunderground v.1.15,2013-01-29 01:30:00,
2013-01-28 19:50:00,34.1,32.8,29.61,North,352,0.0,0.0,95,0.00,,,0.01,Wunderground v.1.15,2013-01-29 01:50:00,
2013-01-28 20:00:00,33.6,32.3,29.62,North,351,0.0,0.0,95,0.00,,,0.01,Wunderground v.1.15,2013-01-29 02:00:00,
2013-01-28 20:10:00,33.3,32.3,29.61,North,349,0.0,0.0,96,0.00,,,0.01,Wunderground v.1.15,2013-01-29 02:10:00,
2013-01-28 20:20:00,32.9,31.9,29.61,ESE,110,0.0,0.0,96,0.00,,,0.01,Wunderground v.1.15,2013-01-29 02:20:00,
2013-01-28 20:30:00,32.6,31.6,29.61,SSW,200,0.0,3.0,96,0.00,,,0.01,Wunderground v.1.15,2013-01-29 02:30:00,
2013-01-28 20:40:00,32.4,31.4,29.60,SE,142,3.0,3.0,96,0.00,,,0.01,Wunderground v.1.15,2013-01-29 02:40:00,
2013-01-28 20:50:00,32.5,31.5,29.59,SE,129,0.0,0.0,96,0.00,,,0.01,Wunderground v.1.15,2013-01-29 02:50:00,
2013-01-28 21:00:00,31.8,30.8,29.60,NNE,32,2.0,2.0,96,0.00,,,0.01,Wunderground v.1.15,2013-01-29 03:00:00,
2013-01-28 21:10:00,31.9,30.9,29.60,WSW,249,1.0,1.0,96,0.00,,,0.01,Wunderground v.1.15,2013-01-29 03:10:00,
2013-01-28 21:20:00,32.0,31.0,29.61,WSW,238,1.0,1.0,96,0.00,,,0.01,Wunderground v.1.15,2013-01-29 03:20:00,
2013-01-28 21:30:00,31.8,30.8,29.61,WNW,295,1.0,6.0,96,0.00,,,0.01,Wunderground v.1.15,2013-01-29 03:30:00,
2013-01-28 21:40:00,31.8,30.8,29.61,NW,313,4.0,4.0,96,0.00,,,0.01,Wunderground v.1.15,2013-01-29 03:40:00,
2013-01-28 21:50:00,31.6,30.6,29.60,WNW,286,1.0,1.0,96,0.00,,,0.01,Wunderground v.1.15,2013-01-29 03:50:00,
2013-01-28 22:00:00,31.1,30.1,29.61,West,278,0.0,1.0,96,0.00,,,0.01,Wunderground v.1.15,2013-01-29 04:00:00,
2013-01-28 22:10:00,30.9,29.9,29.63,West,278,2.0,4.0,96,0.00,,,0.01,Wunderground v.1.15,2013-01-29 04:10:00,
2013-01-28 22:20:00,31.8,31.0,29.64,WNW,296,9.0,10.0,97,0.00,,,0.01,Wunderground v.1.15,2013-01-29 04:20:00,
2013-01-28 22:30:00,32.5,31.7,29.64,WNW,299,11.0,12.0,97,0.00,,,0.01,Wunderground v.1.15,2013-01-29 04:30:00,
2013-01-28 22:40:00,33.6,32.8,29.65,WNW,300,10.0,12.0,97,0.00,,,0.01,Wunderground v.1.15,2013-01-29 04:40:00,
2013-01-28 22:50:00,34.1,33.3,29.65,WNW,291,8.0,8.0,97,0.00,,,0.01,Wunderground v.1.15,2013-01-29 04:50:00,
2013-01-28 23:10:00,34.7,33.9,29.66,WNW,288,7.0,10.0,97,0.00,,,0.01,Wunderground v.1.15,2013-01-29 05:10:00,
2013-01-28 23:20:00,34.7,33.9,29.68,WNW,295,10.0,10.0,97,0.00,,,0.01,Wunderground v.1.15,2013-01-29 05:20:00,
2013-01-28 23:30:00,34.7,33.9,29.69,WNW,296,10.0,10.0,97,0.00,,,0.01,Wunderground v.1.15,2013-01-29 05:30:00,
2013-01-28 23:40:00,34.7,33.9,29.69,NW,309,7.0,7.0,97,0.00,,,0.01,Wunderground v.1.15,2013-01-29 05:40:00,